| time (UTC) | temp C | wind direction | speed KPH | gust KPH | rain 1hr cm | rain 24hr cm | rain mn cm | humidity % | barometer mb |
| 20260503223502 | 11 | 250 | 3.2 | 0.0 | 0.00 | 0.00 | 0.00 | 44 | 1017.0 |
| 20260503220504 | 11 | 240 | 3.2 | 0.0 | 0.00 | 0.00 | 0.00 | 44 | 1017.0 |
| 20260503213503 | 11 | 1.6 | 0.0 | 0.00 | 0.00 | 0.00 | 44 | 1017.0 | |
| 20260503210502 | 12 | 3.2 | 0.0 | 0.00 | 0.00 | 0.00 | 41 | 1017.0 | |
| 20260503203502 | 12 | 220 | 8.0 | 0.0 | 0.00 | 0.00 | 0.00 | 41 | 1018.0 |
| 20260503200502 | 12 | 230 | 8.0 | 0.0 | 0.00 | 0.00 | 0.00 | 41 | 1018.0 |
| 20260503193502 | 12 | 220 | 8.0 | 0.0 | 0.00 | 0.00 | 0.00 | 44 | 1018.0 |
| 20260503190503 | 12 | 210 | 8.0 | 0.0 | 0.00 | 0.00 | 0.00 | 41 | 1018.0 |
| 20260503183502 | 13 | 220 | 4.8 | 0.0 | 0.00 | 0.00 | 0.00 | 36 | 1018.0 |
| 20260503180502 | 13 | 260 | 4.8 | 0.0 | 0.00 | 0.00 | 0.00 | 33 | 1018.0 |
| 20260503173502 | 13 | 270 | 8.0 | 0.0 | 0.00 | 0.00 | 0.00 | 36 | 1018.0 |
| 20260503170503 | 15 | 3.2 | 0.0 | 0.00 | 0.00 | 0.00 | 34 | 1018.0 | |
| 20260503150503 | 16 | 310 | 8.0 | 0.0 | 0.00 | 0.00 | 0.00 | 31 | 1019.0 |
| 20260503130502 | 16 | 4.8 | 0.0 | 0.00 | 0.00 | 0.00 | 27 | 1020.0 | |
| 20260503110502 | 16 | 4.8 | 0.0 | 0.00 | 0.00 | 0.00 | 27 | 1022.0 | |
| 20260503090502 | 15 | 70 | 9.7 | 0.0 | 0.00 | 0.00 | 0.00 | 31 | 1023.0 |
| 20260503080502 | 13 | 3.2 | 0.0 | 0.00 | 0.00 | 0.00 | 27 | 1023.0 | |
| 20260503070503 | 12 | 3.2 | 0.0 | 0.00 | 0.00 | 0.00 | 33 | 1023.0 | |
| 20260503053504 | 6 | 220 | 3.2 | 0.0 | 0.00 | 0.00 | 0.00 | 61 | 1023.0 |
| 20260503050503 | 6 | 220 | 3.2 | 0.0 | 0.00 | 0.00 | 0.00 | 61 | 1023.0 |
| 20260503043503 | 5 | 3.2 | 0.0 | 0.00 | 0.00 | 0.00 | 66 | 1023.0 | |
| 20260503040504 | 3 | 0 | 0.0 | 0.0 | 0.00 | 0.00 | 0.00 | 70 | 1023.0 |
| 20260503033502 | 2 | 0 | 0.0 | 0.0 | 0.00 | 0.00 | 0.00 | 75 | 1023.0 |
| 20260503030503 | 2 | 0 | 0.0 | 0.0 | 0.00 | 0.00 | 0.00 | 75 | 1023.0 |
| 20260503023503 | 1 | 260 | 1.6 | 0.0 | 0.00 | 0.00 | 0.00 | 75 | 1023.0 |
| 20260503020502 | 2 | 290 | 4.8 | 0.0 | 0.00 | 0.00 | 0.00 | 65 | 1023.0 |
| 20260503013503 | 3 | 280 | 3.2 | 0.0 | 0.00 | 0.00 | 0.00 | 65 | 1023.0 |
| 20260503010503 | 3 | 0 | 0.0 | 0.0 | 0.00 | 0.00 | 0.00 | 65 | 1023.0 |
| 20260503003502 | 3 | 290 | 1.6 | 0.0 | 0.00 | 0.00 | 0.00 | 70 | 1023.0 |
| 20260503000502 | 2 | 250 | 1.6 | 0.0 | 0.00 | 0.00 | 0.00 | 70 | 1023.0 |
| 20260502233502 | 6 | 280 | 3.2 | 0.0 | 0.00 | 0.00 | 0.00 | 61 | 1023.0 |
| 20260502230502 | 7 | 0 | 0.0 | 0.0 | 0.00 | 0.00 | 0.00 | 53 | 1023.0 |